(306902) = 1996 CY6 = 2001 TV171

Discovered at Anderson Mesa on 2001-10-13 by LONEOS.

Orbit

Orbit type: Main Belt

Note: WebGL enabled browser required.

epoch2024-03-31.0
epoch JD2460400.5
perihelion date2022-03-11.99904
perihelion JD2459650.49904
argument of perihelion (°)354.12493
ascending node (°)307.60653
inclination (°)9.31930
eccentricity0.1358657
perihelion distance (AU)1.9941362
Tisserand w.r.t. Jupiter3.6
ΔV w.r.t. Earth (km/sec)9.2
semimajor axis (AU)2.3076694
mean anomaly (°)210.86538
mean daily motion (°/day)0.28115350
aphelion distance (AU)2.621
period (years)3.51
P-vector [x]0.52700899
P-vector [y]-0.77298926
P-vector [z]-0.35319843
Q-vector [x]0.84012107
Q-vector [y]0.41111217
Q-vector [z]0.35381262
absolute magnitude16.66
phase slope0.15
uncertainty0
referenceMPEC 2024-E73
observations used465
oppositions13
arc length (days)10251
first opposition used1996
last opposition used2024
residual rms (arc-secs)0.75
perturbers coarse indicatorM-v
perturbers precise indicator003Ek
first observation date used1996-02-10.0
last observation date used2024-03-05.0
computer nameMPCLINUX
JD of orbit computation2456760.926645
perihelion JD uncertainty (days)2.8550E-04
argument of perihelion uncertainty (°)1.0083E-04
ascending node uncertainty (°)7.1029E-05
inclination uncertainty (°)1.0098E-05
eccentricity uncertainty 1.4395E-07
perihelion distance uncertainty (AU)3.3631E-07
Minimum Orbit Intersection Distances (in AU)
for orbit epoch: 2460400.5, reference: E2024-E73
Mercury1.54898
Venus1.26633
Earth0.9788
Mars0.58009
Jupiter2.58998
Saturn6.46134
Uranus15.8942
Neptune27.4467

Observations

477 total observations over interval: 1996 02 10.38721 – 2024 03 05.135862
These data are available for download (format description).

Date (UT) J2000 RA J2000 Dec Magn Location Ref
1996 02 10.38721 09 20 19.61 +12 21 03.9   691 – Steward Observatory, Kitt Peak-Spacewatch MPC 26859
1996 02 10.40848 09 20 18.15 +12 21 06.1   691 – Steward Observatory, Kitt Peak-Spacewatch MPC 26859
1996 02 10.42972 09 20 16.70 +12 21 08.1 20.1 V 691 – Steward Observatory, Kitt Peak-Spacewatch MPC 26859
1996 02 16.31876 09 13 45.46 +12 31 30.2 20.4 V 691 – Steward Observatory, Kitt Peak-Spacewatch MPC 26859
1996 02 16.34028 09 13 43.95 +12 31 33.3   691 – Steward Observatory, Kitt Peak-Spacewatch MPC 26859
1996 02 16.36205 09 13 42.54 +12 31 34.7   691 – Steward Observatory, Kitt Peak-Spacewatch MPC 26859
2001 09 19.24138 01 26 09.88 +24 49 36.4 20.0 R 699 – Lowell Observatory-LONEOS MPS 40951
2001 09 19.26643 01 26 08.71 +24 49 38.6   699 – Lowell Observatory-LONEOS MPS 40951
2001 09 19.29143 01 26 07.43 +24 49 41.3   699 – Lowell Observatory-LONEOS MPS 40951
2001 09 19.31639 01 26 06.28 +24 49 44.4   699 – Lowell Observatory-LONEOS MPS 40951
2001 09 25.32464 01 20 56.26 +24 55 06.5 19.0   704 – Lincoln Laboratory ETS, New Mexico MPS 55007
2001 09 25.33965 01 20 55.38 +24 55 06.3 19.9   704 – Lincoln Laboratory ETS, New Mexico MPS 55007
2001 09 25.35465 01 20 54.48 +24 55 06.5 19.9   704 – Lincoln Laboratory ETS, New Mexico MPS 55007
2001 09 25.36963 01 20 53.61 +24 55 06.1 19.6   704 – Lincoln Laboratory ETS, New Mexico MPS 55007
2001 09 25.38460 01 20 52.75 +24 55 06.6 19.5   704 – Lincoln Laboratory ETS, New Mexico MPS 55007
2001 10 13.30921 01 02 10.67 +24 08 09.3 18.7 R 699 – Lowell Observatory-LONEOS MPS 40951
2001 10 13.33354 01 02 09.11 +24 08 02.0   699 – Lowell Observatory-LONEOS MPS 40951
2001 10 13.35788 01 02 07.44 +24 07 54.7   699 – Lowell Observatory-LONEOS MPS 40951
2001 10 13.38821 01 02 05.42 +24 07 44.0   699 – Lowell Observatory-LONEOS MPS 40951
2001 10 18.24126 00 56 58.46 +23 40 46.1 18.8   704 – Lincoln Laboratory ETS, New Mexico MPS 40951
2001 10 18.25717 00 56 57.49 +23 40 40.2 19.0   704 – Lincoln Laboratory ETS, New Mexico MPS 40951
2001 10 18.27310 00 56 56.39 +23 40 34.2 19.0   704 – Lincoln Laboratory ETS, New Mexico MPS 40951
2001 10 18.30488 00 56 54.37 +23 40 23.6 19.7   704 – Lincoln Laboratory ETS, New Mexico MPS 40951
2001 10 20.24160 00 54 56.86 +23 28 20.3 18.7   704 – Lincoln Laboratory ETS, New Mexico MPS 40951
2001 10 20.25796 00 54 55.92 +23 28 13.5 19.3   704 – Lincoln Laboratory ETS, New Mexico MPS 40951
2001 10 20.27435 00 54 54.79 +23 28 06.8 19.4   704 – Lincoln Laboratory ETS, New Mexico MPS 40951
2001 10 20.27851 00 54 54.55 +23 28 05.9 19.1 R 699 – Lowell Observatory-LONEOS MPS 40951
2001 10 20.29091 00 54 53.86 +23 28 00.9 19.1   704 – Lincoln Laboratory ETS, New Mexico MPS 40951
2001 10 20.29813 00 54 53.40 +23 27 59.3   699 – Lowell Observatory-LONEOS MPS 40951
2001 10 20.30734 00 54 52.81 +23 27 54.9 19.6   704 – Lincoln Laboratory ETS, New Mexico MPS 40951
2001 10 20.31775 00 54 52.11 +23 27 50.8   699 – Lowell Observatory-LONEOS MPS 40951
2001 10 20.33741 00 54 50.91 +23 27 42.4   699 – Lowell Observatory-LONEOS MPS 40951
2001 10 21.25874 00 53 56.46 +23 21 46.0 19.5   704 – Lincoln Laboratory ETS, New Mexico MPS 44335
2001 10 21.27493 00 53 55.42 +23 21 38.9 19.4   704 – Lincoln Laboratory ETS, New Mexico MPS 44335
2001 10 21.29312 00 53 54.34 +23 21 30.4 19.7   704 – Lincoln Laboratory ETS, New Mexico MPS 44335
2001 10 21.30958 00 53 53.30 +23 21 25.6 19.5   704 – Lincoln Laboratory ETS, New Mexico MPS 44335
2001 10 26.21638 00 49 20.16 +22 47 49.6 19.6   644 – Palomar Mountain/NEAT MPS 44335
2001 10 26.23675 00 49 19.01 +22 47 41.1 19.6   644 – Palomar Mountain/NEAT MPS 44335
2001 10 26.25820 00 49 17.86 +22 47 32.2 19.8   644 – Palomar Mountain/NEAT MPS 44335
2003 01 31.33016 09 24 31.12 +12 55 12.7 19.4   704 – Lincoln Laboratory ETS, New Mexico MPS 71542
2003 01 31.37213 09 24 28.30 +12 55 17.7 19.9   704 – Lincoln Laboratory ETS, New Mexico MPS 71542
2003 01 31.38613 09 24 27.31 +12 55 18.8 19.9   704 – Lincoln Laboratory ETS, New Mexico MPS 71542
2003 02 21.17278 09 01 41.76 +13 28 04.2 20.5   644 – Palomar Mountain/NEAT MPS 74069
2003 02 21.19411 09 01 40.41 +13 28 06.2 20.3   644 – Palomar Mountain/NEAT MPS 74069
2003 02 21.21528 09 01 39.12 +13 28 07.8 20.8   644 – Palomar Mountain/NEAT MPS 74069
2008 09 22.46597 01 10 33.16 +23 42 27.8 19.0 V 703 – Catalina Sky Survey MPS 256549
2008 09 22.47357 01 10 32.66 +23 42 28.1 19.6 V 703 – Catalina Sky Survey MPS 256549
2008 09 22.48120 01 10 32.34 +23 42 26.4 19.2 V 703 – Catalina Sky Survey MPS 256549
2008 09 22.48881 01 10 31.72 +23 42 27.7 19.6 V 703 – Catalina Sky Survey MPS 256549
2008 09 30.30042 01 02 46.57 +23 34 30.0 19.1 V 703 – Catalina Sky Survey MPS 257775
2008 09 30.30583 01 02 46.14 +23 34 28.9 19.4 V 703 – Catalina Sky Survey MPS 257775
2008 09 30.31126 01 02 45.78 +23 34 27.8 19.6 V 703 – Catalina Sky Survey MPS 257775
2008 09 30.31670 01 02 45.42 +23 34 26.9 19.2 V 703 – Catalina Sky Survey MPS 257775
2008 10 03.27408 00 59 37.13 +23 26 41.8 18.6   704 – Lincoln Laboratory ETS, New Mexico MPS 259116
2008 10 03.28623 00 59 36.38 +23 26 39.8 19.8   704 – Lincoln Laboratory ETS, New Mexico MPS 259116
2008 10 03.29845 00 59 35.53 +23 26 38.2 19.1   704 – Lincoln Laboratory ETS, New Mexico MPS 259116
2008 10 03.31064 00 59 34.73 +23 26 36.2 19.1   704 – Lincoln Laboratory ETS, New Mexico MPS 259116
2008 10 03.32283 00 59 33.91 +23 26 33.9 19.8   704 – Lincoln Laboratory ETS, New Mexico MPS 259116
2008 10 24.28653 00 38 21.51 +21 33 53.1 19.2 V 703 – Catalina Sky Survey MPS 261308
2008 10 24.29825 00 38 20.94 +21 33 47.4 19.3 V 703 – Catalina Sky Survey MPS 261308
2008 10 24.30995 00 38 20.22 +21 33 43.7 19.1 V 703 – Catalina Sky Survey MPS 261308
2008 10 24.32171 00 38 19.60 +21 33 38.0 19.5 V 703 – Catalina Sky Survey MPS 261308
2008 10 28.19823 00 35 14.69 +21 06 02.2 19.5   704 – Lincoln Laboratory ETS, New Mexico MPS 261308
2008 10 28.20990 00 35 14.15 +21 05 57.8 19.8   704 – Lincoln Laboratory ETS, New Mexico MPS 261308
2008 10 28.22153 00 35 13.55 +21 05 53.1 19.6   704 – Lincoln Laboratory ETS, New Mexico MPS 261308
2008 10 28.23303 00 35 12.95 +21 05 47.4 20.2   704 – Lincoln Laboratory ETS, New Mexico MPS 261308
2008 10 28.24451 00 35 12.54 +21 05 41.2 20.0   704 – Lincoln Laboratory ETS, New Mexico MPS 261308
2008 11 02.15313 00 31 55.30 +20 30 12.2 19.1 V 703 – Catalina Sky Survey MPS 263038
2008 11 02.16175 00 31 54.94 +20 30 08.3 19.0 V 703 – Catalina Sky Survey MPS 263038
2008 11 02.17039 00 31 54.48 +20 30 05.4 18.9 V 703 – Catalina Sky Survey MPS 263038
2008 11 02.17910 00 31 54.26 +20 30 02.0 19.0 V 703 – Catalina Sky Survey MPS 263038
2008 11 08.10784 00 28 56.89 +19 48 03.9 19.5 V 703 – Catalina Sky Survey MPS 264533
2008 11 08.11390 00 28 56.82 +19 48 02.3 20.2 V 703 – Catalina Sky Survey MPS 264533
2008 11 08.11998 00 28 56.60 +19 47 59.6 19.5 V 703 – Catalina Sky Survey MPS 264533
2008 11 08.12611 00 28 56.46 +19 47 58.7 19.7 V 703 – Catalina Sky Survey MPS 264533
2008 11 22.21102 00 26 35.29 +18 22 25.1 20.5   704 – Lincoln Laboratory ETS, New Mexico MPS 266374
2008 11 22.22345 00 26 35.24 +18 22 19.5 20.6   704 – Lincoln Laboratory ETS, New Mexico MPS 266374
2008 11 22.24838 00 26 35.11 +18 22 09.3 20.2   704 – Lincoln Laboratory ETS, New Mexico MPS 266374
2009 11 21.47599 09 38 55.96 +15 36 56.3 21.5 V G96 – Mt. Lemmon Survey MPS 304763
2009 11 21.48363 09 38 56.29 +15 36 54.3 21.5 V G96 – Mt. Lemmon Survey MPS 304763
2009 11 21.49144 09 38 56.50 +15 36 52.2 21.6 V G96 – Mt. Lemmon Survey MPS 304763
2009 11 21.49920 09 38 56.76 +15 36 49.4 21.7 V G96 – Mt. Lemmon Survey MPS 304763
2010 02 11.359050 09 04 36.801 +14 05 32.17 20.79 g F51 – Pan-STARRS 1, Haleakala MPS 337269
2010 02 11.369408 09 04 36.090 +14 05 33.04 20.76 g F51 – Pan-STARRS 1, Haleakala MPS 337269
2010 02 13.31887 09 02 26.95 +14 08 23.1 19.7 V G96 – Mt. Lemmon Survey MPS 312972
2010 02 13.32478 09 02 26.59 +14 08 23.3 19.6 V G96 – Mt. Lemmon Survey MPS 312972
2010 02 13.33080 09 02 26.16 +14 08 24.2 19.9 V G96 – Mt. Lemmon Survey MPS 312972
2010 02 13.33678 09 02 25.76 +14 08 24.6 20.0 V G96 – Mt. Lemmon Survey MPS 312972
2010 02 14.36782 09 01 18.37 +14 09 52.2 19.7 V 703 – Catalina Sky Survey MPS 312972
